[[{"header":{"parameterUnit":"m.s-1","parameterCategory":1,"la1":30.2991,"la2":30.254,"lo1":-89.0895,"lo2":-89.0444,"dy":0.0017,"dx":0.0017,"nx":28,"ny":28,"refTime":"2025-09-16T03:00:00:Z","depth":0,"parameterNumber":2,"parameterNumberName":"U-component_of_WINDS"},"data":[0,0,0,0,0,0,0,0,0,0,0,0,0,0,0,0,0,0,0,0,0,0,0,0,0,0,0,0,0,0,0,0,0,0,0,0,0,0,0,0,0,0,0,0,0,0,0,0,0,0,0,0,0,0,0,0,0,0,-1.1741,-1.174,0,-1.1719,-1.1719,-1.1718,-1.1673,-1.1672,-1.1671,-1.167,-1.1649,-1.165,-1.165,0,0,0,0,0,0,0,0,0,0,0,0,0,-1.1745,-1.1746,-1.1741,-1.174,-1.174,-1.1719,-1.1719,-1.1718,-1.1673,-1.1672,-1.1671,-1.167,-1.1649,-1.165,-1.165,0,0,0,0,0,0,0,0,0,0,0,0,0,-1.1736,-1.1746,-1.1741,-1.1715,-1.1713,-1.1719,-1.1719,-1.1718,-1.1673,-1.1672,-1.1671,-1.1669,-1.1649,-1.165,-1.165,-1.168,0,0,-1.1651,-1.1652,0,0,0,0,0,0,0,0,-1.1736,-1.1735,-1.1719,-1.1717,-1.1714,-1.1697,-1.1713,-1.1706,-1.1674,-1.1688,-1.167,-1.1669,-1.1667,-1.1666,-1.1664,-1.1679,-1.1678,-1.1652,-1.1652,-1.1652,-1.1652,0,0,0,0,0,0,0,-1.1737,-1.1736,-1.1732,-1.1719,-1.1716,-1.1705,-1.1702,-1.1711,-1.1685,-1.1687,-1.1684,-1.1682,-1.1665,-1.1664,-1.1664,-1.1678,-1.1651,-1.1652,-1.1652,-1.1652,-1.1718,-1.172,0,0,0,0,0,0,-1.1741,-1.1737,-1.1733,-1.1731,-1.1722,-1.1706,-1.1703,-1.1704,-1.1685,-1.1681,-1.1683,-1.168,-1.1664,-1.1663,-1.1663,-1.1698,-1.1652,-1.1652,-1.1653,-1.1717,-1.1719,-1.172,0,0,0,0,0,0,-1.1741,-1.1741,-1.1734,-1.1733,-1.1732,-1.1708,-1.1709,-1.1704,-1.1703,-1.1682,-1.1677,-1.1687,-1.1663,-1.1662,-1.1677,-1.1696,-1.1653,-1.1653,-1.1715,-1.1718,-1.172,-1.1768,0,0,0,0,0,0,-1.1742,-1.1742,-1.1752,-1.1734,-1.1732,-1.1747,-1.171,-1.1705,-1.1704,-1.17,-1.1684,-1.168,-1.1662,-1.1676,-1.1677,-1.1696,-1.1653,-1.1713,-1.1716,-1.1719,-1.1764,-1.1771,-1.1777,0,0,0,0,0,-1.1742,-1.1766,-1.1753,-1.1753,-1.1744,-1.1748,-1.1747,-1.1725,-1.1706,-1.1717,-1.1703,-1.1681,-1.1694,-1.1678,-1.1679,-1.1698,-1.1712,-1.1715,-1.1719,-1.1761,-1.177,-1.1777,0,0,0,0,0,0,-1.1787,-1.1763,-1.1748,-1.1767,-1.176,-1.1741,-1.1753,-1.1734,-1.1733,-1.1729,-1.1702,-1.1699,-1.1717,-1.1709,-1.1691,-1.1727,-1.17,-1.1703,-1.1732,-1.174,-1.1746,-1.1748,-1.1654,0,0,0,0,0,-1.18,-1.1804,-1.1783,-1.1802,-1.18,-1.1778,-1.1778,-1.1762,-1.1754,-1.1751,-1.1738,-1.1731,-1.1734,-1.1737,-1.1738,-1.1763,-1.176,-1.1777,-1.1784,-1.1789,-1.1793,-1.1807,-1.1815,-1.1731,-1.1731,-1.1731,0,0,-1.1825,-1.1812,-1.1817,-1.1811,-1.1804,-1.181,-1.1775,-1.1783,-1.1788,-1.1752,-1.1765,-1.1756,-1.1747,-1.1767,-1.1775,-1.1761,-1.1815,-1.1793,-1.1798,-1.1798,-1.1811,-1.1819,-1.1826,-1.1734,-1.1733,-1.1733,0,0,-1.1874,-1.1865,-1.188,-1.1874,-1.1863,-1.1849,-1.1852,-1.1836,-1.1829,-1.1841,-1.1815,-1.1821,-1.1826,-1.1821,-1.1819,-1.1869,-1.1849,-1.187,-1.1904,-1.1919,-1.1925,-1.1931,-1.195,-1.1957,-1.1874,-1.1874,-1.1874,0,-1.1907,-1.1915,-1.189,-1.19,-1.1899,-1.1867,-1.1883,-1.1878,-1.1869,-1.1869,-1.1853,-1.186,-1.1852,-1.1871,-1.1883,-1.1883,-1.1887,-1.1871,-1.1926,-1.1932,-1.1936,-1.1954,-1.1961,-1.1876,-1.1876,-1.1876,-1.1876,0,-1.1956,-1.1962,-1.1976,-1.1968,-1.1968,-1.1981,-1.196,-1.1963,-1.1948,-1.1935,-1.1949,-1.1938,-1.1938,-1.1941,-1.1925,-1.1959,-1.1951,-1.1931,-1.1902,-1.1948,-1.1964,-1.197,-1.188,-1.1879,-1.1879,-1.1878,0,0,-1.2032,-1.2012,-1.2017,-1.2014,-1.2001,-1.2005,-1.2018,-1.2017,-1.2021,-1.2016,-1.2026,-1.2032,-1.2014,-1.2012,-1.1996,-1.2009,-1.205,-1.1987,-1.1987,-1.2,-1.2088,-1.2104,-1.2112,-1.2037,-1.2038,-1.2039,-1.2089,0,-1.2079,-1.2098,-1.2077,-1.2101,-1.2107,-1.2078,-1.2089,-1.2083,-1.2072,-1.2076,-1.2064,-1.2069,-1.2045,-1.2044,-1.2055,-1.2043,-1.2068,-1.2039,-1.2047,-1.2048,-1.2051,-1.212,-1.2135,-1.2183,-1.2095,-1.2096,-1.2097,0,-1.2135,-1.2133,-1.2158,-1.2145,-1.2146,-1.2156,-1.2155,-1.2159,-1.2152,-1.2144,-1.2143,-1.2123,-1.2136,-1.2108,-1.2126,-1.2107,-1.2109,-1.2104,-1.2106,-1.2106,-1.2075,-1.2122,-1.2198,-1.2205,-1.2107,-1.2106,-1.2105,0,-1.2189,-1.2193,-1.2208,-1.2206,-1.2191,-1.2199,-1.2193,-1.2185,-1.2186,-1.2185,-1.2186,-1.2187,-1.2187,-1.2189,-1.2171,-1.2152,-1.2191,-1.2162,-1.2186,-1.2186,-1.2195,-1.2195,-1.2272,-1.2196,-1.2196,-1.2196,-1.2196,0,-1.2243,-1.226,-1.2232,-1.2242,-1.226,-1.2237,-1.2256,-1.2247,-1.224,-1.2248,-1.2223,-1.2232,-1.2207,-1.2214,-1.22,-1.2217,-1.2218,-1.2212,-1.2208,-1.2214,-1.2215,-1.2216,-1.2212,-1.2198,-1.2197,-1.2197,-1.2197,0,-1.2306,-1.2288,-1.2304,-1.2288,-1.2285,-1.2299,-1.2287,-1.2296,-1.2284,-1.2295,-1.2296,-1.2278,-1.2284,-1.2266,-1.227,-1.2261,-1.2286,-1.2277,-1.2289,-1.2286,-1.2311,-1.2309,-1.2392,-1.2402,-1.2319,-1.232,-1.232,0,-1.2342,-1.2354,-1.234,-1.2344,-1.234,-1.2346,-1.2347,-1.2326,-1.2328,-1.2323,-1.2333,-1.2337,-1.2339,-1.2351,-1.2339,-1.2342,-1.2333,-1.2361,-1.2333,-1.2339,-1.2334,-1.2334,-1.2335,-1.2367,-1.2368,-1.2369,-1.237,0,-1.2408,-1.2399,-1.2401,-1.2402,-1.2404,-1.2404,-1.2401,-1.2406,-1.2383,-1.2388,-1.2394,-1.2396,-1.24,-1.2405,-1.2406,-1.2401,-1.2383,-1.2379,-1.2385,-1.2391,-1.2398,-1.2396,-1.2305,-1.2377,-1.2376,-1.2376,-1.2376,-1.2375,-1.2458,-1.2468,-1.2461,-1.2465,-1.2461,-1.246,-1.2468,-1.2458,-1.2462,-1.2464,-1.2451,-1.2461,-1.2455,-1.2454,-1.2452,-1.246,-1.2446,-1.2455,-1.2457,-1.2459,-1.2464,-1.2397,-1.246,-1.2459,-1.2459,-1.2459,-1.2459,0,-1.2523,-1.2517,-1.2522,-1.2519,-1.2524,-1.2505,-1.2503,-1.2507,-1.2516,-1.2512,-1.2515,-1.2524,-1.2529,-1.2518,-1.2522,-1.253,-1.2522,-1.2532,-1.2531,-1.2531,-1.2475,-1.247,-1.2539,-1.2539,-1.2539,-1.2539,-1.2539,-1.2539,-1.2557,-1.2573,-1.2564,-1.2579,-1.2573,-1.2581,-1.2582,-1.2581,-1.2578,-1.2589,-1.2593,-1.2585,-1.2579,-1.2583,-1.2588,-1.2584,-1.2588,-1.2601,-1.2595,-1.2542,-1.2535,-1.2527,-1.2522,-1.2602,-1.2602,-1.265,-1.2651,-1.2651]},{"header":{"parameterUnit":"m.s-1","parameterCategory":1,"la1":30.2991,"la2":30.254,"lo1":-89.0895,"lo2":-89.0444,"dy":0.0017,"dx":0.0017,"nx":28,"ny":28,"refTime":"2025-09-16T03:00:00:Z","depth":0,"parameterNumber":3,"parameterNumberName":"V-component_of_WINDS"},"data":[0,0,0,0,0,0,0,0,0,0,0,0,0,0,0,0,0,0,0,0,0,0,0,0,0,0,0,0,0,0,0,0,0,0,0,0,0,0,0,0,0,0,0,0,0,0,0,0,0,0,0,0,0,0,0,0,0,0,1.5689,1.5689,0,1.5648,1.5648,1.5647,1.5647,1.5647,1.5648,1.5648,1.5602,1.5601,1.5599,0,0,0,0,0,0,0,0,0,0,0,0,0,1.5762,1.5761,1.5689,1.5689,1.5688,1.5648,1.5648,1.5647,1.5647,1.5647,1.5648,1.5649,1.5603,1.5601,1.5599,0,0,0,0,0,0,0,0,0,0,0,0,0,1.5727,1.576,1.5689,1.5683,1.5682,1.5649,1.5648,1.5647,1.5647,1.5647,1.5648,1.5649,1.5604,1.5601,1.5598,1.5567,0,0,1.5591,1.5589,0,0,0,0,0,0,0,0,1.5729,1.5724,1.5685,1.5684,1.5682,1.5654,1.5657,1.562,1.5646,1.566,1.5648,1.5649,1.5618,1.5615,1.5605,1.5565,1.5563,1.559,1.5589,1.5588,1.5587,0,0,0,0,0,0,0,1.5731,1.5726,1.5673,1.5684,1.5683,1.5681,1.5677,1.565,1.5635,1.5659,1.5659,1.5654,1.5618,1.5608,1.5604,1.5562,1.559,1.5588,1.5587,1.5586,1.5491,1.549,0,0,0,0,0,0,1.5735,1.5728,1.5674,1.5672,1.5708,1.5679,1.5674,1.5662,1.5636,1.5632,1.5654,1.5654,1.5612,1.5607,1.5602,1.5562,1.5588,1.5585,1.5584,1.5492,1.5491,1.549,0,0,0,0,0,0,1.5737,1.5731,1.5676,1.57,1.5693,1.5677,1.5663,1.5661,1.5651,1.5632,1.5628,1.5646,1.5612,1.5606,1.5575,1.556,1.5584,1.5582,1.5493,1.5492,1.549,1.5481,0,0,0,0,0,0,1.5739,1.5731,1.572,1.57,1.5691,1.5651,1.5662,1.5659,1.5647,1.5647,1.5624,1.562,1.5612,1.5579,1.5573,1.5557,1.558,1.5494,1.5493,1.5491,1.5483,1.548,1.5477,0,0,0,0,0,1.5742,1.5719,1.572,1.5713,1.5677,1.565,1.5645,1.5638,1.5645,1.5633,1.5621,1.5621,1.5564,1.5576,1.5569,1.5552,1.5495,1.5493,1.5491,1.5484,1.548,1.5477,0,0,0,0,0,0,1.5736,1.5716,1.5717,1.5686,1.567,1.565,1.5634,1.5634,1.5614,1.5615,1.5606,1.56,1.5569,1.5558,1.5573,1.5519,1.553,1.5526,1.5527,1.5524,1.5521,1.5523,1.5578,0,0,0,0,0,1.5732,1.5713,1.5696,1.5671,1.5663,1.565,1.5638,1.5634,1.5616,1.5608,1.5594,1.5575,1.5553,1.5538,1.5516,1.5482,1.5475,1.5467,1.5464,1.5462,1.5458,1.5436,1.5431,1.5483,1.5483,1.5483,0,0,1.5722,1.5709,1.5697,1.5669,1.5656,1.5635,1.5644,1.5622,1.5605,1.5604,1.5574,1.5563,1.5542,1.5508,1.5493,1.5498,1.5442,1.5459,1.5457,1.5454,1.5434,1.5429,1.5424,1.5481,1.5482,1.5482,0,0,1.5693,1.5682,1.5659,1.5646,1.5626,1.5618,1.5612,1.5592,1.5585,1.5555,1.5554,1.5534,1.5496,1.548,1.5467,1.5431,1.543,1.5425,1.5408,1.5388,1.5384,1.538,1.5365,1.536,1.5421,1.5421,1.5421,0,1.5682,1.5652,1.5647,1.5624,1.5611,1.5611,1.5586,1.5573,1.5547,1.5537,1.5544,1.5495,1.5481,1.5443,1.5435,1.5425,1.5416,1.5426,1.5385,1.5381,1.5378,1.5363,1.5358,1.5421,1.5421,1.5421,1.5421,0,1.5639,1.5618,1.5601,1.5577,1.5562,1.5539,1.5528,1.5514,1.5511,1.5502,1.547,1.5453,1.5427,1.5419,1.5415,1.538,1.5383,1.5388,1.5398,1.5372,1.5358,1.5353,1.542,1.542,1.542,1.542,0,0,1.5604,1.5577,1.5571,1.5559,1.5538,1.552,1.5496,1.5472,1.5459,1.5441,1.5419,1.5387,1.5391,1.5376,1.5371,1.5353,1.5323,1.5359,1.5359,1.5351,1.528,1.5274,1.5268,1.5323,1.5322,1.5321,1.5281,0,1.557,1.5528,1.5523,1.5485,1.5464,1.5464,1.5442,1.5426,1.5416,1.5396,1.5385,1.5362,1.537,1.5361,1.5344,1.533,1.5308,1.5334,1.53,1.5298,1.5302,1.5261,1.5256,1.5218,1.5275,1.5274,1.5274,0,1.5525,1.5507,1.5467,1.5447,1.5438,1.5419,1.5395,1.5377,1.5358,1.5352,1.5336,1.5333,1.5305,1.5319,1.528,1.5298,1.5284,1.5275,1.5273,1.5268,1.5283,1.5251,1.5206,1.5199,1.5266,1.5266,1.5267,0,1.55,1.5466,1.5437,1.5427,1.5404,1.539,1.5379,1.5361,1.5347,1.5326,1.5316,1.5293,1.5279,1.526,1.525,1.5261,1.5211,1.5224,1.5203,1.5203,1.519,1.519,1.5138,1.5186,1.5186,1.5186,1.5186,0,1.5462,1.5437,1.5425,1.5407,1.5378,1.5372,1.5343,1.5333,1.5317,1.5295,1.5294,1.5274,1.5263,1.5241,1.5233,1.52,1.5195,1.5187,1.5185,1.5186,1.5186,1.5174,1.5175,1.5184,1.5185,1.5185,1.5185,0,1.5428,1.542,1.5388,1.5369,1.5363,1.5342,1.5325,1.5307,1.5298,1.5271,1.5264,1.525,1.5223,1.5212,1.5179,1.5174,1.5135,1.5137,1.5142,1.5141,1.5119,1.512,1.5055,1.5045,1.5102,1.5101,1.5101,0,1.5402,1.5383,1.5362,1.5348,1.5337,1.5315,1.5301,1.5294,1.5278,1.5254,1.5238,1.5212,1.519,1.5147,1.5133,1.5107,1.5105,1.5085,1.5101,1.5102,1.5101,1.5101,1.5098,1.5081,1.508,1.508,1.5079,0,1.5357,1.5354,1.5334,1.5311,1.5294,1.5276,1.5258,1.5246,1.5236,1.5218,1.5192,1.5175,1.5142,1.5115,1.5088,1.5076,1.5074,1.5075,1.5068,1.5067,1.5069,1.5065,1.513,1.5075,1.5076,1.5076,1.5076,1.5076,1.5325,1.5307,1.5289,1.5266,1.5252,1.5235,1.5216,1.5206,1.5184,1.5156,1.5154,1.5124,1.5104,1.5069,1.5055,1.5031,1.5036,1.5027,1.5024,1.5021,1.5018,1.5076,1.5026,1.5026,1.5026,1.5027,1.5027,0,1.5277,1.5266,1.5245,1.522,1.5201,1.5204,1.5185,1.5168,1.5142,1.5125,1.5104,1.5072,1.5046,1.5029,1.5002,1.4986,1.4984,1.4978,1.4978,1.4974,1.5016,1.5023,1.498,1.498,1.498,1.498,1.498,1.498,1.525,1.5219,1.5213,1.5175,1.5164,1.5135,1.5123,1.5107,1.5093,1.5058,1.5036,1.5027,1.5008,1.498,1.4955,1.4951,1.494,1.4933,1.4928,1.4967,1.4972,1.4976,1.4983,1.4931,1.4931,1.4888,1.4888,1.4888]}]]